owner,sensor,date,latitude,longitude,air_temperature,qcFlag 
WAVCIS,ioos:station:WAVCIS:CSI16:1,2008-12-09T21:00:00Z,29.4012,-89.0355,20.08,11111222 
WAVCIS,ioos:station:WAVCIS:CSI16:1,2008-12-09T22:00:00Z,29.4012,-89.0355,20.09,11111222 
WAVCIS,ioos:station:WAVCIS:CSI16:1,2008-12-09T23:00:00Z,29.4012,-89.0355,20.12,11111222 
WAVCIS,ioos:station:WAVCIS:CSI16:1,2008-12-10T00:00:00Z,29.4012,-89.0355,20.27,11111222 
WAVCIS,ioos:station:WAVCIS:CSI16:1,2008-12-10T01:00:00Z,29.4012,-89.0355,20.26,11111222 
WAVCIS,ioos:station:WAVCIS:CSI16:1,2008-12-10T02:00:00Z,29.4012,-89.0355,20.63,11111222 
WAVCIS,ioos:station:WAVCIS:CSI16:1,2008-12-10T03:00:00Z,29.4012,-89.0355,20.49,11111222 
WAVCIS,ioos:station:WAVCIS:CSI16:1,2008-12-10T04:00:00Z,29.4012,-89.0355,20.55,11111222 
WAVCIS,ioos:station:WAVCIS:CSI16:1,2008-12-10T05:00:00Z,29.4012,-89.0355,20.3,11111222 
WAVCIS,ioos:station:WAVCIS:CSI16:1,2008-12-10T06:00:00Z,29.4012,-89.0355,19.84,11111222 
WAVCIS,ioos:station:WAVCIS:CSI16:1,2008-12-10T07:00:00Z,29.4012,-89.0355,21.44,11111222 
WAVCIS,ioos:station:WAVCIS:CSI16:1,2008-12-10T08:00:00Z,29.4012,-89.0355,19.75,11111222 
WAVCIS,ioos:station:WAVCIS:CSI16:1,2008-12-10T09:00:00Z,29.4012,-89.0355,19.22,11111222 
WAVCIS,ioos:station:WAVCIS:CSI16:1,2008-12-10T10:00:00Z,29.4012,-89.0355,20.17,11111222 
WAVCIS,ioos:station:WAVCIS:CSI16:1,2008-12-10T11:00:00Z,29.4012,-89.0355,19.67,11111222 
WAVCIS,ioos:station:WAVCIS:CSI16:1,2008-12-10T12:00:00Z,29.4012,-89.0355,19.96,11111222 
WAVCIS,ioos:station:WAVCIS:CSI16:1,2008-12-10T13:00:00Z,29.4012,-89.0355,17.19,11111222 
WAVCIS,ioos:station:WAVCIS:CSI16:1,2008-12-10T14:00:00Z,29.4012,-89.0355,17.97,11111222 
WAVCIS,ioos:station:WAVCIS:CSI16:1,2008-12-10T15:00:00Z,29.4012,-89.0355,17.59,11111222 
WAVCIS,ioos:station:WAVCIS:CSI16:1,2008-12-10T16:00:00Z,29.4012,-89.0355,17.17,11111222 
WAVCIS,ioos:station:WAVCIS:CSI16:1,2008-12-10T17:00:00Z,29.4012,-89.0355,15.72,11111222 
WAVCIS,ioos:station:WAVCIS:CSI16:1,2008-12-10T18:00:00Z,29.4012,-89.0355,17.01,11111222 
WAVCIS,ioos:station:WAVCIS:CSI16:1,2008-12-10T19:00:00Z,29.4012,-89.0355,14.5,11111222 
WAVCIS,ioos:station:WAVCIS:CSI16:1,2008-12-10T20:00:00Z,29.4012,-89.0355,14.35,11111222 
WAVCIS,ioos:station:WAVCIS:CSI16:1,2008-12-10T21:00:00Z,29.4012,-89.0355,17.85,11111222 
WAVCIS,ioos:station:WAVCIS:CSI16:1,2008-12-10T22:00:00Z,29.4012,-89.0355,14.63,11111222 
WAVCIS,ioos:station:WAVCIS:CSI16:1,2008-12-10T23:00:00Z,29.4012,-89.0355,14.28,11111222 
WAVCIS,ioos:station:WAVCIS:CSI16:1,2008-12-11T00:00:00Z,29.4012,-89.0355,13.65,11111222 
WAVCIS,ioos:station:WAVCIS:CSI16:1,2008-12-11T01:00:00Z,29.4012,-89.0355,11.49,11111222 
WAVCIS,ioos:station:WAVCIS:CSI16:1,2008-12-11T02:00:00Z,29.4012,-89.0355,10.73,11111222 
WAVCIS,ioos:station:WAVCIS:CSI16:1,2008-12-11T03:00:00Z,29.4012,-89.0355,8.8,11111222 
WAVCIS,ioos:station:WAVCIS:CSI16:1,2008-12-11T04:00:00Z,29.4012,-89.0355,8.25,11111222 
WAVCIS,ioos:station:WAVCIS:CSI16:1,2008-12-11T05:00:00Z,29.4012,-89.0355,9.37,11111222 
WAVCIS,ioos:station:WAVCIS:CSI16:1,2008-12-11T06:00:00Z,29.4012,-89.0355,8.04,11111222 
WAVCIS,ioos:station:WAVCIS:CSI16:1,2008-12-11T07:00:00Z,29.4012,-89.0355,7.72,11111222 
WAVCIS,ioos:station:WAVCIS:CSI16:1,2008-12-11T08:00:00Z,29.4012,-89.0355,7.59,11111222 
WAVCIS,ioos:station:WAVCIS:CSI16:1,2008-12-11T09:00:00Z,29.4012,-89.0355,8.34,11111222 
WAVCIS,ioos:station:WAVCIS:CSI16:1,2008-12-11T10:00:00Z,29.4012,-89.0355,7.0,11111222 
WAVCIS,ioos:station:WAVCIS:CSI16:1,2008-12-11T11:00:00Z,29.4012,-89.0355,6.43,11111222 
WAVCIS,ioos:station:WAVCIS:CSI16:1,2008-12-11T12:00:00Z,29.4012,-89.0355,5.957,11111222 
WAVCIS,ioos:station:WAVCIS:CSI16:1,2008-12-11T13:00:00Z,29.4012,-89.0355,5.611,11111222 
WAVCIS,ioos:station:WAVCIS:CSI16:1,2008-12-11T14:00:00Z,29.4012,-89.0355,5.39,11111222 
WAVCIS,ioos:station:WAVCIS:CSI16:1,2008-12-11T15:00:00Z,29.4012,-89.0355,5.555,11111222 
WAVCIS,ioos:station:WAVCIS:CSI16:1,2008-12-11T16:00:00Z,29.4012,-89.0355,4.646,11111222 
WAVCIS,ioos:station:WAVCIS:CSI16:1,2008-12-11T17:00:00Z,29.4012,-89.0355,4.045,11111222 
WAVCIS,ioos:station:WAVCIS:CSI16:1,2008-12-11T18:00:00Z,29.4012,-89.0355,3.706,11111222 
WAVCIS,ioos:station:WAVCIS:CSI16:1,2008-12-11T19:00:00Z,29.4012,-89.0355,3.857,11111222 
WAVCIS,ioos:station:WAVCIS:CSI16:1,2008-12-11T20:00:00Z,29.4012,-89.0355,4.254,11111222 
WAVCIS,ioos:station:WAVCIS:CSI16:1,2008-12-11T21:00:00Z,29.4012,-89.0355,4.664,11111222 
WAVCIS,ioos:station:WAVCIS:CSI16:1,2008-12-11T22:00:00Z,29.4012,-89.0355,4.555,11111222 
WAVCIS,ioos:station:WAVCIS:CSI16:1,2008-12-11T23:00:00Z,29.4012,-89.0355,4.783,11111222 
WAVCIS,ioos:station:WAVCIS:CSI16:1,2008-12-12T00:00:00Z,29.4012,-89.0355,5.264,11111222 
WAVCIS,ioos:station:WAVCIS:CSI16:1,2008-12-12T01:00:00Z,29.4012,-89.0355,5.872,11111222 
WAVCIS,ioos:station:WAVCIS:CSI16:1,2008-12-12T02:00:00Z,29.4012,-89.0355,5.94,11111222 
WAVCIS,ioos:station:WAVCIS:CSI16:1,2008-12-12T03:00:00Z,29.4012,-89.0355,5.92,11111222 
WAVCIS,ioos:station:WAVCIS:CSI16:1,2008-12-12T04:00:00Z,29.4012,-89.0355,6.17,11111222 
WAVCIS,ioos:station:WAVCIS:CSI16:1,2008-12-12T05:00:00Z,29.4012,-89.0355,6.34,11111222 
WAVCIS,ioos:station:WAVCIS:CSI16:1,2008-12-12T06:00:00Z,29.4012,-89.0355,6.39,11111222 
WAVCIS,ioos:station:WAVCIS:CSI16:1,2008-12-12T07:00:00Z,29.4012,-89.0355,6.29,11111222 
WAVCIS,ioos:station:WAVCIS:CSI16:1,2008-12-12T08:00:00Z,29.4012,-89.0355,6.31,11111222 
WAVCIS,ioos:station:WAVCIS:CSI16:1,2008-12-12T09:00:00Z,29.4012,-89.0355,6.34,11111222 
WAVCIS,ioos:station:WAVCIS:CSI16:1,2008-12-12T10:00:00Z,29.4012,-89.0355,6.064,11111222 
WAVCIS,ioos:station:WAVCIS:CSI16:1,2008-12-12T11:00:00Z,29.4012,-89.0355,6.22,11111222 
WAVCIS,ioos:station:WAVCIS:CSI16:1,2008-12-12T12:00:00Z,29.4012,-89.0355,6.44,11111222 
WAVCIS,ioos:station:WAVCIS:CSI16:1,2008-12-12T13:00:00Z,29.4012,-89.0355,6.75,11111222 
WAVCIS,ioos:station:WAVCIS:CSI16:1,2008-12-12T14:00:00Z,29.4012,-89.0355,6.98,11111222 
WAVCIS,ioos:station:WAVCIS:CSI16:1,2008-12-12T15:00:00Z,29.4012,-89.0355,7.09,11111222 
WAVCIS,ioos:station:WAVCIS:CSI16:1,2008-12-12T16:00:00Z,29.4012,-89.0355,7.25,11111222 
WAVCIS,ioos:station:WAVCIS:CSI16:1,2008-12-12T17:00:00Z,29.4012,-89.0355,8.5,11111222 
WAVCIS,ioos:station:WAVCIS:CSI16:1,2008-12-12T18:00:00Z,29.4012,-89.0355,8.29,11111222 
WAVCIS,ioos:station:WAVCIS:CSI16:1,2008-12-12T19:00:00Z,29.4012,-89.0355,7.81,11111222 
WAVCIS,ioos:station:WAVCIS:CSI16:1,2008-12-12T20:00:00Z,29.4012,-89.0355,7.97,11111222 
WAVCIS,ioos:station:WAVCIS:CSI16:1,2008-12-12T21:00:00Z,29.4012,-89.0355,8.78,11111222 
WAVCIS,ioos:station:WAVCIS:CSI16:1,2008-12-12T22:00:00Z,29.4012,-89.0355,9.65,11111222 
WAVCIS,ioos:station:WAVCIS:CSI16:1,2008-12-12T23:00:00Z,29.4012,-89.0355,9.66,11111222 
WAVCIS,ioos:station:WAVCIS:CSI16:1,2008-12-13T00:00:00Z,29.4012,-89.0355,10.03,11111222 
WAVCIS,ioos:station:WAVCIS:CSI16:1,2008-12-13T01:00:00Z,29.4012,-89.0355,10.31,11111222 
WAVCIS,ioos:station:WAVCIS:CSI16:1,2008-12-13T02:00:00Z,29.4012,-89.0355,10.35,11111222 
WAVCIS,ioos:station:WAVCIS:CSI16:1,2008-12-13T03:00:00Z,29.4012,-89.0355,11.37,11111222 
WAVCIS,ioos:station:WAVCIS:CSI16:1,2008-12-13T04:00:00Z,29.4012,-89.0355,14.9,11111222 
WAVCIS,ioos:station:WAVCIS:CSI16:1,2008-12-13T05:00:00Z,29.4012,-89.0355,17.37,11111222 
WAVCIS,ioos:station:WAVCIS:CSI16:1,2008-12-13T06:00:00Z,29.4012,-89.0355,14.21,11111222 
WAVCIS,ioos:station:WAVCIS:CSI16:1,2008-12-13T07:00:00Z,29.4012,-89.0355,14.11,11111222 
WAVCIS,ioos:station:WAVCIS:CSI16:1,2008-12-13T08:00:00Z,29.4012,-89.0355,13.57,11111222 
WAVCIS,ioos:station:WAVCIS:CSI16:1,2008-12-13T09:00:00Z,29.4012,-89.0355,12.11,11111222 
WAVCIS,ioos:station:WAVCIS:CSI16:1,2008-12-13T10:00:00Z,29.4012,-89.0355,11.83,11111222 
WAVCIS,ioos:station:WAVCIS:CSI16:1,2008-12-13T11:00:00Z,29.4012,-89.0355,11.35,11111222 
WAVCIS,ioos:station:WAVCIS:CSI16:1,2008-12-13T12:00:00Z,29.4012,-89.0355,11.33,11111222 
WAVCIS,ioos:station:WAVCIS:CSI16:1,2008-12-13T13:00:00Z,29.4012,-89.0355,11.44,11111222 
WAVCIS,ioos:station:WAVCIS:CSI16:1,2008-12-13T14:00:00Z,29.4012,-89.0355,11.88,11111222 
WAVCIS,ioos:station:WAVCIS:CSI16:1,2008-12-13T15:00:00Z,29.4012,-89.0355,12.67,11111222 
WAVCIS,ioos:station:WAVCIS:CSI16:1,2008-12-13T16:00:00Z,29.4012,-89.0355,12.9,11111222 
WAVCIS,ioos:station:WAVCIS:CSI16:1,2008-12-13T17:00:00Z,29.4012,-89.0355,13.2,11111222 
WAVCIS,ioos:station:WAVCIS:CSI16:1,2008-12-13T18:00:00Z,29.4012,-89.0355,13.83,11111222 
WAVCIS,ioos:station:WAVCIS:CSI16:1,2008-12-13T19:00:00Z,29.4012,-89.0355,13.97,11111222 
WAVCIS,ioos:station:WAVCIS:CSI16:1,2008-12-13T20:00:00Z,29.4012,-89.0355,14.31,11111222 
WAVCIS,ioos:station:WAVCIS:CSI16:1,2008-12-13T21:00:00Z,29.4012,-89.0355,14.65,11111222 
WAVCIS,ioos:station:WAVCIS:CSI16:1,2008-12-13T22:00:00Z,29.4012,-89.0355,15.01,11111222 
WAVCIS,ioos:station:WAVCIS:CSI16:1,2008-12-13T23:00:00Z,29.4012,-89.0355,15.33,11111222 
WAVCIS,ioos:station:WAVCIS:CSI16:1,2008-12-14T00:00:00Z,29.4012,-89.0355,15.79,11111222 
WAVCIS,ioos:station:WAVCIS:CSI16:1,2008-12-14T01:00:00Z,29.4012,-89.0355,15.98,11111222 
WAVCIS,ioos:station:WAVCIS:CSI16:1,2008-12-14T02:00:00Z,29.4012,-89.0355,16.08,11111222 
WAVCIS,ioos:station:WAVCIS:CSI16:1,2008-12-14T03:00:00Z,29.4012,-89.0355,16.57,11111222 
WAVCIS,ioos:station:WAVCIS:CSI16:1,2008-12-14T04:00:00Z,29.4012,-89.0355,16.54,11111222 
WAVCIS,ioos:station:WAVCIS:CSI16:1,2008-12-14T05:00:00Z,29.4012,-89.0355,16.46,11111222 
WAVCIS,ioos:station:WAVCIS:CSI16:1,2008-12-14T06:00:00Z,29.4012,-89.0355,16.72,11111222 
WAVCIS,ioos:station:WAVCIS:CSI16:1,2008-12-14T07:00:00Z,29.4012,-89.0355,16.68,11111222 
WAVCIS,ioos:station:WAVCIS:CSI16:1,2008-12-14T08:00:00Z,29.4012,-89.0355,16.78,11111222 
WAVCIS,ioos:station:WAVCIS:CSI16:1,2008-12-14T09:00:00Z,29.4012,-89.0355,16.85,11111222 
WAVCIS,ioos:station:WAVCIS:CSI16:1,2008-12-14T10:00:00Z,29.4012,-89.0355,16.91,11111222 
WAVCIS,ioos:station:WAVCIS:CSI16:1,2008-12-14T11:00:00Z,29.4012,-89.0355,17.3,11111222 
WAVCIS,ioos:station:WAVCIS:CSI16:1,2008-12-14T12:00:00Z,29.4012,-89.0355,17.66,11111222 
WAVCIS,ioos:station:WAVCIS:CSI16:1,2008-12-14T13:00:00Z,29.4012,-89.0355,18.15,11111222 
WAVCIS,ioos:station:WAVCIS:CSI16:1,2008-12-14T14:00:00Z,29.4012,-89.0355,17.59,11111222 
WAVCIS,ioos:station:WAVCIS:CSI16:1,2008-12-14T15:00:00Z,29.4012,-89.0355,18.01,11111222 
WAVCIS,ioos:station:WAVCIS:CSI16:1,2008-12-14T16:00:00Z,29.4012,-89.0355,18.29,11111222 
WAVCIS,ioos:station:WAVCIS:CSI16:1,2008-12-14T17:00:00Z,29.4012,-89.0355,17.94,11111222 
WAVCIS,ioos:station:WAVCIS:CSI16:1,2008-12-14T18:00:00Z,29.4012,-89.0355,17.14,11111222 
WAVCIS,ioos:station:WAVCIS:CSI16:1,2008-12-14T19:00:00Z,29.4012,-89.0355,17.4,11111222 
WAVCIS,ioos:station:WAVCIS:CSI16:1,2008-12-14T20:00:00Z,29.4012,-89.0355,18.24,11111222 
WAVCIS,ioos:station:WAVCIS:CSI16:1,2008-12-14T21:00:00Z,29.4012,-89.0355,18.39,11111222 
WAVCIS,ioos:station:WAVCIS:CSI16:1,2008-12-14T22:00:00Z,29.4012,-89.0355,18.55,11111222 
WAVCIS,ioos:station:WAVCIS:CSI16:1,2008-12-14T23:00:00Z,29.4012,-89.0355,18.52,11111222 
WAVCIS,ioos:station:WAVCIS:CSI16:1,2008-12-15T00:00:00Z,29.4012,-89.0355,18.3,11111222 
WAVCIS,ioos:station:WAVCIS:CSI16:1,2008-12-15T01:00:00Z,29.4012,-89.0355,18.51,11111222 
WAVCIS,ioos:station:WAVCIS:CSI16:1,2008-12-15T02:00:00Z,29.4012,-89.0355,18.66,11111222 
WAVCIS,ioos:station:WAVCIS:CSI16:1,2008-12-15T03:00:00Z,29.4012,-89.0355,18.01,11111222 
WAVCIS,ioos:station:WAVCIS:CSI16:1,2008-12-15T04:00:00Z,29.4012,-89.0355,18.23,11111222 
WAVCIS,ioos:station:WAVCIS:CSI16:1,2008-12-15T05:00:00Z,29.4012,-89.0355,17.27,11111222 
WAVCIS,ioos:station:WAVCIS:CSI16:1,2008-12-15T06:00:00Z,29.4012,-89.0355,18.11,11111222 
WAVCIS,ioos:station:WAVCIS:CSI16:1,2008-12-15T07:00:00Z,29.4012,-89.0355,18.62,11111222 
WAVCIS,ioos:station:WAVCIS:CSI16:1,2008-12-15T08:00:00Z,29.4012,-89.0355,18.25,11111222 
WAVCIS,ioos:station:WAVCIS:CSI16:1,2008-12-15T09:00:00Z,29.4012,-89.0355,19.36,11111222 
WAVCIS,ioos:station:WAVCIS:CSI16:1,2008-12-15T10:00:00Z,29.4012,-89.0355,19.29,11111222 
WAVCIS,ioos:station:WAVCIS:CSI16:1,2008-12-15T11:00:00Z,29.4012,-89.0355,19.36,11111222 
WAVCIS,ioos:station:WAVCIS:CSI16:1,2008-12-15T12:00:00Z,29.4012,-89.0355,19.53,11111222 
WAVCIS,ioos:station:WAVCIS:CSI16:1,2008-12-15T13:00:00Z,29.4012,-89.0355,19.2,11111222 
WAVCIS,ioos:station:WAVCIS:CSI16:1,2008-12-15T14:00:00Z,29.4012,-89.0355,19.69,11111222 
WAVCIS,ioos:station:WAVCIS:CSI16:1,2008-12-15T15:00:00Z,29.4012,-89.0355,19.4,11111222 
WAVCIS,ioos:station:WAVCIS:CSI16:1,2008-12-15T16:00:00Z,29.4012,-89.0355,18.9,11111222 
WAVCIS,ioos:station:WAVCIS:CSI16:1,2008-12-15T17:00:00Z,29.4012,-89.0355,20.18,11111222 
WAVCIS,ioos:station:WAVCIS:CSI16:1,2008-12-15T18:00:00Z,29.4012,-89.0355,20.75,11111222 
WAVCIS,ioos:station:WAVCIS:CSI16:1,2008-12-15T19:00:00Z,29.4012,-89.0355,21.3,11111222 
WAVCIS,ioos:station:WAVCIS:CSI16:1,2008-12-15T20:00:00Z,29.4012,-89.0355,19.43,11111222 
WAVCIS,ioos:station:WAVCIS:CSI16:1,2008-12-15T21:00:00Z,29.4012,-89.0355,18.86,11111222 
WAVCIS,ioos:station:WAVCIS:CSI16:1,2008-12-15T22:00:00Z,29.4012,-89.0355,19.47,11111222 
WAVCIS,ioos:station:WAVCIS:CSI16:1,2008-12-15T23:00:00Z,29.4012,-89.0355,19.27,11111222 
WAVCIS,ioos:station:WAVCIS:CSI16:1,2008-12-16T00:00:00Z,29.4012,-89.0355,19.08,11111222 
WAVCIS,ioos:station:WAVCIS:CSI16:1,2008-12-16T01:00:00Z,29.4012,-89.0355,19.97,11111222 
WAVCIS,ioos:station:WAVCIS:CSI16:1,2008-12-16T02:00:00Z,29.4012,-89.0355,19.46,11111222 
WAVCIS,ioos:station:WAVCIS:CSI16:1,2008-12-16T03:00:00Z,29.4012,-89.0355,19.29,11111222 
WAVCIS,ioos:station:WAVCIS:CSI16:1,2008-12-16T04:00:00Z,29.4012,-89.0355,18.94,11111222 
WAVCIS,ioos:station:WAVCIS:CSI16:1,2008-12-16T05:00:00Z,29.4012,-89.0355,19.09,11111222 
WAVCIS,ioos:station:WAVCIS:CSI16:1,2008-12-16T06:00:00Z,29.4012,-89.0355,18.28,11111222 
WAVCIS,ioos:station:WAVCIS:CSI16:1,2008-12-16T07:00:00Z,29.4012,-89.0355,18.41,11111222 
WAVCIS,ioos:station:WAVCIS:CSI16:1,2008-12-16T08:00:00Z,29.4012,-89.0355,19.34,11111222 
WAVCIS,ioos:station:WAVCIS:CSI16:1,2008-12-16T09:00:00Z,29.4012,-89.0355,19.26,11111222 
WAVCIS,ioos:station:WAVCIS:CSI16:1,2008-12-16T10:00:00Z,29.4012,-89.0355,18.57,11111222 
WAVCIS,ioos:station:WAVCIS:CSI16:1,2008-12-16T11:00:00Z,29.4012,-89.0355,19.46,11111222 
WAVCIS,ioos:station:WAVCIS:CSI16:1,2008-12-16T12:00:00Z,29.4012,-89.0355,19.09,11111222 
WAVCIS,ioos:station:WAVCIS:CSI16:1,2008-12-16T13:00:00Z,29.4012,-89.0355,18.55,11111222 
WAVCIS,ioos:station:WAVCIS:CSI16:1,2008-12-16T14:00:00Z,29.4012,-89.0355,19.21,11111222 
WAVCIS,ioos:station:WAVCIS:CSI16:1,2008-12-16T15:00:00Z,29.4012,-89.0355,19.29,11111222 
WAVCIS,ioos:station:WAVCIS:CSI16:1,2008-12-16T16:00:00Z,29.4012,-89.0355,17.67,11111222 
WAVCIS,ioos:station:WAVCIS:CSI16:1,2008-12-16T17:00:00Z,29.4012,-89.0355,19.39,11111222 
WAVCIS,ioos:station:WAVCIS:CSI16:1,2008-12-16T18:00:00Z,29.4012,-89.0355,19.14,11111222 
WAVCIS,ioos:station:WAVCIS:CSI16:1,2008-12-16T19:00:00Z,29.4012,-89.0355,18.68,11111222 
WAVCIS,ioos:station:WAVCIS:CSI16:1,2008-12-16T20:00:00Z,29.4012,-89.0355,20.25,11111222 
WAVCIS,ioos:station:WAVCIS:CSI16:1,2008-12-16T21:00:00Z,29.4012,-89.0355,20.62,11111222 
WAVCIS,ioos:station:WAVCIS:CSI16:1,2008-12-16T22:00:00Z,29.4012,-89.0355,19.25,11111222 
WAVCIS,ioos:station:WAVCIS:CSI16:1,2008-12-16T23:00:00Z,29.4012,-89.0355,20.19,11111222 
WAVCIS,ioos:station:WAVCIS:CSI16:1,2008-12-17T00:00:00Z,29.4012,-89.0355,20.23,11111222 
WAVCIS,ioos:station:WAVCIS:CSI16:1,2008-12-17T01:00:00Z,29.4012,-89.0355,20.0,11111222 
WAVCIS,ioos:station:WAVCIS:CSI16:1,2008-12-17T02:00:00Z,29.4012,-89.0355,19.68,11111222 
WAVCIS,ioos:station:WAVCIS:CSI16:1,2008-12-17T03:00:00Z,29.4012,-89.0355,19.97,11111222 
WAVCIS,ioos:station:WAVCIS:CSI16:1,2008-12-17T04:00:00Z,29.4012,-89.0355,19.39,11111222 
WAVCIS,ioos:station:WAVCIS:CSI16:1,2008-12-17T05:00:00Z,29.4012,-89.0355,19.63,11111222 
WAVCIS,ioos:station:WAVCIS:CSI16:1,2008-12-17T06:00:00Z,29.4012,-89.0355,18.92,11111222 
WAVCIS,ioos:station:WAVCIS:CSI16:1,2008-12-17T07:00:00Z,29.4012,-89.0355,19.38,11111222 
WAVCIS,ioos:station:WAVCIS:CSI16:1,2008-12-17T08:00:00Z,29.4012,-89.0355,19.48,11111222 
WAVCIS,ioos:station:WAVCIS:CSI16:1,2008-12-17T09:00:00Z,29.4012,-89.0355,19.45,11111222 
WAVCIS,ioos:station:WAVCIS:CSI16:1,2008-12-17T10:00:00Z,29.4012,-89.0355,19.38,11111222 
WAVCIS,ioos:station:WAVCIS:CSI16:1,2008-12-17T11:00:00Z,29.4012,-89.0355,18.76,11111222 
WAVCIS,ioos:station:WAVCIS:CSI16:1,2008-12-17T12:00:00Z,29.4012,-89.0355,18.54,11111222 
WAVCIS,ioos:station:WAVCIS:CSI16:1,2008-12-17T13:00:00Z,29.4012,-89.0355,18.43,11111222 
WAVCIS,ioos:station:WAVCIS:CSI16:1,2008-12-17T14:00:00Z,29.4012,-89.0355,18.52,11111222 
WAVCIS,ioos:station:WAVCIS:CSI16:1,2008-12-17T15:00:00Z,29.4012,-89.0355,19.44,11111222 
WAVCIS,ioos:station:WAVCIS:CSI16:1,2008-12-17T16:00:00Z,29.4012,-89.0355,19.79,11111222 
WAVCIS,ioos:station:WAVCIS:CSI16:1,2008-12-17T17:00:00Z,29.4012,-89.0355,19.63,11111222 
WAVCIS,ioos:station:WAVCIS:CSI16:1,2008-12-17T18:00:00Z,29.4012,-89.0355,19.75,11111222 
WAVCIS,ioos:station:WAVCIS:CSI16:1,2008-12-17T19:00:00Z,29.4012,-89.0355,19.88,11111222 
WAVCIS,ioos:station:WAVCIS:CSI16:1,2008-12-17T20:00:00Z,29.4012,-89.0355,20.01,11111222 
WAVCIS,ioos:station:WAVCIS:CSI16:1,2008-12-17T21:00:00Z,29.4012,-89.0355,19.93,11111222 
WAVCIS,ioos:station:WAVCIS:CSI16:1,2008-12-17T22:00:00Z,29.4012,-89.0355,19.7,11111222 
WAVCIS,ioos:station:WAVCIS:CSI16:1,2008-12-17T23:00:00Z,29.4012,-89.0355,19.22,11111222 
WAVCIS,ioos:station:WAVCIS:CSI16:1,2008-12-18T00:00:00Z,29.4012,-89.0355,19.18,11111222 
WAVCIS,ioos:station:WAVCIS:CSI16:1,2008-12-18T01:00:00Z,29.4012,-89.0355,18.93,11111222 
WAVCIS,ioos:station:WAVCIS:CSI16:1,2008-12-18T02:00:00Z,29.4012,-89.0355,19.04,11111222 
WAVCIS,ioos:station:WAVCIS:CSI16:1,2008-12-18T03:00:00Z,29.4012,-89.0355,18.99,11111222 
WAVCIS,ioos:station:WAVCIS:CSI16:1,2008-12-18T04:00:00Z,29.4012,-89.0355,18.87,11111222 
WAVCIS,ioos:station:WAVCIS:CSI16:1,2008-12-18T05:00:00Z,29.4012,-89.0355,19.12,11111222 
WAVCIS,ioos:station:WAVCIS:CSI16:1,2008-12-18T06:00:00Z,29.4012,-89.0355,18.86,11111222 
WAVCIS,ioos:station:WAVCIS:CSI16:1,2008-12-18T07:00:00Z,29.4012,-89.0355,18.78,11111222 
WAVCIS,ioos:station:WAVCIS:CSI16:1,2008-12-18T08:00:00Z,29.4012,-89.0355,18.95,11111222 
WAVCIS,ioos:station:WAVCIS:CSI16:1,2008-12-18T09:00:00Z,29.4012,-89.0355,18.73,11111222 
WAVCIS,ioos:station:WAVCIS:CSI16:1,2008-12-18T10:00:00Z,29.4012,-89.0355,19.16,11111222 
WAVCIS,ioos:station:WAVCIS:CSI16:1,2008-12-18T11:00:00Z,29.4012,-89.0355,18.99,11111222 
WAVCIS,ioos:station:WAVCIS:CSI16:1,2008-12-18T12:00:00Z,29.4012,-89.0355,18.46,11111222 
WAVCIS,ioos:station:WAVCIS:CSI16:1,2008-12-18T13:00:00Z,29.4012,-89.0355,18.66,11111222 
WAVCIS,ioos:station:WAVCIS:CSI16:1,2008-12-18T14:00:00Z,29.4012,-89.0355,19.69,11111222 
WAVCIS,ioos:station:WAVCIS:CSI16:1,2008-12-18T15:00:00Z,29.4012,-89.0355,19.55,11111222 
WAVCIS,ioos:station:WAVCIS:CSI16:1,2008-12-18T17:00:00Z,29.4012,-89.0355,19.2,11111222 
WAVCIS,ioos:station:WAVCIS:CSI16:1,2008-12-18T18:00:00Z,29.4012,-89.0355,19.07,11111222 
WAVCIS,ioos:station:WAVCIS:CSI16:1,2008-12-18T19:00:00Z,29.4012,-89.0355,18.86,11111222 
WAVCIS,ioos:station:WAVCIS:CSI16:1,2008-12-18T20:00:00Z,29.4012,-89.0355,19.03,11111222 
WAVCIS,ioos:station:WAVCIS:CSI16:1,2008-12-18T21:00:00Z,29.4012,-89.0355,19.29,11111222 
WAVCIS,ioos:station:WAVCIS:CSI16:1,2008-12-18T22:00:00Z,29.4012,-89.0355,19.39,11111222 
WAVCIS,ioos:station:WAVCIS:CSI16:1,2008-12-18T23:00:00Z,29.4012,-89.0355,18.87,11111222 
WAVCIS,ioos:station:WAVCIS:CSI16:1,2008-12-19T00:00:00Z,29.4012,-89.0355,18.74,11111222 
WAVCIS,ioos:station:WAVCIS:CSI16:1,2008-12-19T01:00:00Z,29.4012,-89.0355,18.62,11111222 
WAVCIS,ioos:station:WAVCIS:CSI16:1,2008-12-19T02:00:00Z,29.4012,-89.0355,18.77,11111222 
WAVCIS,ioos:station:WAVCIS:CSI16:1,2008-12-19T03:00:00Z,29.4012,-89.0355,18.74,11111222 
WAVCIS,ioos:station:WAVCIS:CSI16:1,2008-12-19T04:00:00Z,29.4012,-89.0355,18.59,11111222 
WAVCIS,ioos:station:WAVCIS:CSI16:1,2008-12-19T05:00:00Z,29.4012,-89.0355,18.39,11111222 
WAVCIS,ioos:station:WAVCIS:CSI16:1,2008-12-19T06:00:00Z,29.4012,-89.0355,18.31,11111222 
WAVCIS,ioos:station:WAVCIS:CSI16:1,2008-12-19T07:00:00Z,29.4012,-89.0355,18.34,11111222 
WAVCIS,ioos:station:WAVCIS:CSI16:1,2008-12-19T08:00:00Z,29.4012,-89.0355,18.1,11111222 
WAVCIS,ioos:station:WAVCIS:CSI16:1,2008-12-19T09:00:00Z,29.4012,-89.0355,18.83,11111222 
WAVCIS,ioos:station:WAVCIS:CSI16:1,2008-12-19T10:00:00Z,29.4012,-89.0355,18.88,11111222 
WAVCIS,ioos:station:WAVCIS:CSI16:1,2008-12-19T11:00:00Z,29.4012,-89.0355,18.42,11111222 
WAVCIS,ioos:station:WAVCIS:CSI16:1,2008-12-19T12:00:00Z,29.4012,-89.0355,18.74,11111222 
WAVCIS,ioos:station:WAVCIS:CSI16:1,2008-12-19T13:00:00Z,29.4012,-89.0355,18.49,11111222 
WAVCIS,ioos:station:WAVCIS:CSI16:1,2008-12-19T14:00:00Z,29.4012,-89.0355,18.84,11111222 
WAVCIS,ioos:station:WAVCIS:CSI16:1,2008-12-19T15:00:00Z,29.4012,-89.0355,19.89,11111222 
WAVCIS,ioos:station:WAVCIS:CSI16:1,2008-12-19T16:00:00Z,29.4012,-89.0355,19.67,11111222 
WAVCIS,ioos:station:WAVCIS:CSI16:1,2008-12-19T17:00:00Z,29.4012,-89.0355,18.89,11111222 
WAVCIS,ioos:station:WAVCIS:CSI16:1,2008-12-19T18:00:00Z,29.4012,-89.0355,20.08,11111222 
WAVCIS,ioos:station:WAVCIS:CSI16:1,2008-12-19T19:00:00Z,29.4012,-89.0355,19.82,11111222 
WAVCIS,ioos:station:WAVCIS:CSI16:1,2008-12-19T20:00:00Z,29.4012,-89.0355,20.66,11111222 
WAVCIS,ioos:station:WAVCIS:CSI16:1,2008-12-19T21:00:00Z,29.4012,-89.0355,20.13,11111222 
WAVCIS,ioos:station:WAVCIS:CSI16:1,2008-12-19T22:00:00Z,29.4012,-89.0355,20.04,11111222 
WAVCIS,ioos:station:WAVCIS:CSI16:1,2008-12-19T23:00:00Z,29.4012,-89.0355,20.35,11111222 
WAVCIS,ioos:station:WAVCIS:CSI16:1,2008-12-20T00:00:00Z,29.4012,-89.0355,19.54,11111222 
WAVCIS,ioos:station:WAVCIS:CSI16:1,2008-12-20T01:00:00Z,29.4012,-89.0355,19.05,11111222 
WAVCIS,ioos:station:WAVCIS:CSI16:1,2008-12-20T02:00:00Z,29.4012,-89.0355,18.99,11111222 
WAVCIS,ioos:station:WAVCIS:CSI16:1,2008-12-20T03:00:00Z,29.4012,-89.0355,19.31,11111222 
WAVCIS,ioos:station:WAVCIS:CSI16:1,2008-12-20T04:00:00Z,29.4012,-89.0355,18.84,11111222 
WAVCIS,ioos:station:WAVCIS:CSI16:1,2008-12-20T05:00:00Z,29.4012,-89.0355,19.03,11111222 
WAVCIS,ioos:station:WAVCIS:CSI16:1,2008-12-20T06:00:00Z,29.4012,-89.0355,18.17,11111222 
WAVCIS,ioos:station:WAVCIS:CSI16:1,2008-12-20T07:00:00Z,29.4012,-89.0355,16.94,11111222 
WAVCIS,ioos:station:WAVCIS:CSI16:1,2008-12-20T08:00:00Z,29.4012,-89.0355,17.99,11111222 
WAVCIS,ioos:station:WAVCIS:CSI16:1,2008-12-20T09:00:00Z,29.4012,-89.0355,17.65,11111222 
WAVCIS,ioos:station:WAVCIS:CSI16:1,2008-12-20T10:00:00Z,29.4012,-89.0355,18.47,11111222 
WAVCIS,ioos:station:WAVCIS:CSI16:1,2008-12-20T11:00:00Z,29.4012,-89.0355,17.14,11111222 
WAVCIS,ioos:station:WAVCIS:CSI16:1,2008-12-20T12:00:00Z,29.4012,-89.0355,16.7,11111222 
WAVCIS,ioos:station:WAVCIS:CSI16:1,2008-12-20T13:00:00Z,29.4012,-89.0355,18.37,11111222 
WAVCIS,ioos:station:WAVCIS:CSI16:1,2008-12-20T14:00:00Z,29.4012,-89.0355,16.63,11111222 
WAVCIS,ioos:station:WAVCIS:CSI16:1,2008-12-20T15:00:00Z,29.4012,-89.0355,18.6,11111222 
WAVCIS,ioos:station:WAVCIS:CSI16:1,2008-12-20T16:00:00Z,29.4012,-89.0355,16.6,11111222 
WAVCIS,ioos:station:WAVCIS:CSI16:1,2008-12-20T17:00:00Z,29.4012,-89.0355,17.43,11111222 
WAVCIS,ioos:station:WAVCIS:CSI16:1,2008-12-20T18:00:00Z,29.4012,-89.0355,18.03,11111222 
WAVCIS,ioos:station:WAVCIS:CSI16:1,2008-12-20T19:00:00Z,29.4012,-89.0355,18.46,11111222 
WAVCIS,ioos:station:WAVCIS:CSI16:1,2008-12-20T20:00:00Z,29.4012,-89.0355,19.5,11111222 
WAVCIS,ioos:station:WAVCIS:CSI16:1,2008-12-20T21:00:00Z,29.4012,-89.0355,19.75,11111222 
WAVCIS,ioos:station:WAVCIS:CSI16:1,2008-12-20T22:00:00Z,29.4012,-89.0355,19.98,11111222 
WAVCIS,ioos:station:WAVCIS:CSI16:1,2008-12-20T23:00:00Z,29.4012,-89.0355,19.19,11111222 
WAVCIS,ioos:station:WAVCIS:CSI16:1,2008-12-21T00:00:00Z,29.4012,-89.0355,18.32,11111222 
WAVCIS,ioos:station:WAVCIS:CSI16:1,2008-12-21T01:00:00Z,29.4012,-89.0355,18.21,11111222 
WAVCIS,ioos:station:WAVCIS:CSI16:1,2008-12-21T02:00:00Z,29.4012,-89.0355,17.88,11111222 